[[{"header":{"parameterUnit":"m.s-1","parameterCategory":1,"la1":30.2991,"la2":30.254,"lo1":-89.0895,"lo2":-89.0444,"dy":0.0017,"dx":0.0017,"nx":28,"ny":28,"refTime":"2024-08-18T09:00:00:Z","depth":0,"parameterNumber":2,"parameterNumberName":"U-component_of_WINDS"},"data":[0,0,0,0,0,0,0,0,0,0,0,0,0,0,0,0,0,0,0,0,0,0,0,0,0,0,0,0,0,0,0,0,0,0,0,0,0,0,0,0,0,0,0,0,0,0,0,0,0,0,0,0,0,0,0,0,0,0,3.1208,3.121,0,3.1381,3.1383,3.1384,3.137,3.1367,3.1365,3.1362,3.1541,3.1548,3.1555,0,0,0,0,0,0,0,0,0,0,0,0,0,3.0868,3.0874,3.1208,3.121,3.1212,3.138,3.1383,3.1385,3.137,3.1367,3.1364,3.1361,3.1539,3.1547,3.1556,0,0,0,0,0,0,0,0,0,0,0,0,0,3.1026,3.0877,3.1207,3.1225,3.1228,3.138,3.1383,3.1386,3.1371,3.1367,3.1363,3.1359,3.1536,3.1546,3.1557,3.1703,0,0,3.159,3.1595,0,0,0,0,0,0,0,0,3.1017,3.1038,3.122,3.1224,3.1228,3.135,3.1328,3.1492,3.1372,3.1317,3.1362,3.1357,3.1481,3.1496,3.1537,3.1711,3.1719,3.1591,3.1598,3.1602,3.1605,0,0,0,0,0,0,0,3.1006,3.1031,3.1276,3.1223,3.1228,3.1225,3.1243,3.1359,3.1419,3.1321,3.1321,3.1341,3.1482,3.1526,3.1541,3.1722,3.1591,3.16,3.1607,3.1611,3.2025,3.203,0,0,0,0,0,0,3.0991,3.1022,3.1271,3.1281,3.111,3.1234,3.1255,3.1315,3.1418,3.1429,3.1344,3.134,3.151,3.1528,3.1547,3.1725,3.1602,3.1612,3.1619,3.2021,3.2026,3.2031,0,0,0,0,0,0,3.0983,3.1013,3.1264,3.1152,3.1183,3.1245,3.1312,3.132,3.1364,3.1435,3.1446,3.1379,3.1508,3.1532,3.1664,3.1731,3.1617,3.1627,3.2016,3.2023,3.2029,3.2082,0,0,0,0,0,0,3.0974,3.101,3.1066,3.1153,3.1189,3.1377,3.1316,3.1326,3.1383,3.1379,3.147,3.1481,3.1506,3.1648,3.1675,3.1744,3.1635,3.201,3.2019,3.2027,3.2074,3.2089,3.2102,0,0,0,0,0,3.0962,3.1074,3.1068,3.1099,3.1259,3.1381,3.1402,3.1428,3.1388,3.1445,3.149,3.1478,3.172,3.1662,3.1692,3.1765,3.2006,3.2016,3.2026,3.2068,3.2086,3.2102,0,0,0,0,0,0,3.0993,3.1086,3.1081,3.1224,3.1295,3.1378,3.145,3.1446,3.153,3.1523,3.1552,3.1573,3.1706,3.1749,3.1683,3.1912,3.1858,3.1874,3.1879,3.1897,3.1911,3.1898,3.1644,0,0,0,0,0,3.1017,3.1107,3.1183,3.1303,3.1338,3.1388,3.1442,3.1456,3.1531,3.1561,3.1616,3.1689,3.1782,3.1842,3.1931,3.2081,3.2101,3.2146,3.216,3.2171,3.2185,3.2268,3.2289,3.2065,3.2065,3.2064,0,0,3.1067,3.1128,3.1184,3.1311,3.1367,3.1461,3.1414,3.1514,3.1584,3.1576,3.1704,3.1748,3.1832,3.1974,3.2039,3.2014,3.2252,3.2184,3.2193,3.2201,3.2281,3.2302,3.2321,3.2072,3.207,3.2069,0,0,3.1205,3.1261,3.1367,3.1424,3.151,3.1543,3.1568,3.1653,3.1681,3.181,3.1806,3.1891,3.2049,3.2109,3.2161,3.2324,3.2316,3.2352,3.2426,3.2506,3.2524,3.254,3.2598,3.2619,3.2366,3.2366,3.2366,0,3.1256,3.1396,3.1422,3.1524,3.158,3.1577,3.1685,3.174,3.1851,3.189,3.186,3.206,3.2116,3.2272,3.2312,3.2354,3.2385,3.2342,3.2519,3.2535,3.2551,3.2607,3.2628,3.237,3.237,3.2369,3.2369,0,3.1455,3.1553,3.1628,3.1735,3.18,3.1904,3.1946,3.201,3.2019,3.2055,3.2187,3.2255,3.2358,3.2396,3.2406,3.2554,3.2536,3.2513,3.2458,3.2575,3.2628,3.265,3.2376,3.2374,3.2373,3.2372,0,0,3.1618,3.1737,3.1765,3.1813,3.1909,3.1985,3.209,3.219,3.2244,3.2321,3.241,3.2545,3.2524,3.2583,3.26,3.267,3.2796,3.2639,3.2641,3.2665,3.2964,3.2981,3.3005,3.2792,3.2796,3.2799,3.2957,0,3.1766,3.195,3.1977,3.2141,3.2231,3.223,3.2322,3.2391,3.2428,3.2511,3.2553,3.2648,3.2613,3.2649,3.2719,3.2765,3.2856,3.2755,3.2876,3.288,3.2853,3.3033,3.3051,3.3196,3.2978,3.2982,3.2984,0,3.1962,3.2044,3.2217,3.23,3.2339,3.2421,3.2516,3.2595,3.2674,3.2696,3.2762,3.277,3.288,3.2822,3.2975,3.2905,3.2956,3.2987,3.2993,3.3005,3.2938,3.3049,3.3243,3.3264,3.3017,3.3014,3.3012,0,3.2063,3.2217,3.234,3.2382,3.2482,3.254,3.2585,3.266,3.2718,3.2802,3.284,3.2935,3.2987,3.3061,3.3096,3.305,3.3247,3.3191,3.3268,3.3268,3.3309,3.3306,3.3513,3.3343,3.3343,3.3342,3.3342,0,3.2225,3.2331,3.2387,3.2462,3.2581,3.2611,3.2729,3.2772,3.2839,3.2923,3.2929,3.3009,3.305,3.3136,3.3164,3.3286,3.331,3.3331,3.3337,3.3331,3.3328,3.3364,3.3355,3.3348,3.3347,3.3346,3.3345,0,3.2358,3.2399,3.2533,3.2618,3.2642,3.2725,3.2798,3.2872,3.2909,3.3017,3.3044,3.3102,3.3204,3.3246,3.3371,3.339,3.3531,3.3529,3.3504,3.3505,3.3581,3.3573,3.3818,3.3852,3.366,3.3662,3.3663,0,3.2458,3.2539,3.2632,3.2689,3.2735,3.2827,3.2887,3.2921,3.2983,3.308,3.3143,3.3244,3.3327,3.3491,3.3545,3.3641,3.3642,3.3721,3.3656,3.3647,3.3643,3.3637,3.3646,3.3733,3.3735,3.3736,3.3738,0,3.2632,3.2648,3.2734,3.2828,3.2899,3.2975,3.3049,3.3095,3.314,3.3211,3.3314,3.3379,3.3507,3.3608,3.3708,3.3755,3.3755,3.3758,3.3781,3.3774,3.3756,3.3767,3.3536,3.3752,3.3751,3.3749,3.3749,3.3748,3.2751,3.2823,3.29,3.2996,3.3055,3.3124,3.3198,3.3244,3.3331,3.3437,3.3452,3.3564,3.3642,3.3775,3.3827,3.3915,3.3895,3.3928,3.3936,3.3944,3.3949,3.3743,3.3933,3.3933,3.3933,3.3932,3.3932,0,3.2925,3.2974,3.3062,3.3165,3.3241,3.3233,3.3315,3.3379,3.3476,3.3549,3.3631,3.3751,3.3849,3.3912,3.4011,3.407,3.4073,3.4095,3.4091,3.4102,3.3961,3.3931,3.4092,3.4092,3.4091,3.4091,3.4091,3.4091,3.3024,3.3146,3.3172,3.3324,3.3373,3.3481,3.3529,3.3593,3.3651,3.3784,3.3866,3.3906,3.3975,3.4079,3.417,3.4186,3.4222,3.4246,3.4261,3.4128,3.4112,3.4096,3.4068,3.4254,3.4254,3.4394,3.4395,3.4396]},{"header":{"parameterUnit":"m.s-1","parameterCategory":1,"la1":30.2991,"la2":30.254,"lo1":-89.0895,"lo2":-89.0444,"dy":0.0017,"dx":0.0017,"nx":28,"ny":28,"refTime":"2024-08-18T09:00:00:Z","depth":0,"parameterNumber":3,"parameterNumberName":"V-component_of_WINDS"},"data":[0,0,0,0,0,0,0,0,0,0,0,0,0,0,0,0,0,0,0,0,0,0,0,0,0,0,0,0,0,0,0,0,0,0,0,0,0,0,0,0,0,0,0,0,0,0,0,0,0,0,0,0,0,0,0,0,0,0,-0.883,-0.883,0,-0.8829,-0.8829,-0.8829,-0.8842,-0.8842,-0.8843,-0.8843,-0.884,-0.884,-0.8839,0,0,0,0,0,0,0,0,0,0,0,0,0,-0.8841,-0.8841,-0.883,-0.883,-0.883,-0.8829,-0.8829,-0.8829,-0.8842,-0.8842,-0.8843,-0.8843,-0.884,-0.884,-0.8839,0,0,0,0,0,0,0,0,0,0,0,0,0,-0.8838,-0.8841,-0.883,-0.8837,-0.8837,-0.8829,-0.8829,-0.8829,-0.8842,-0.8842,-0.8843,-0.8843,-0.884,-0.884,-0.8839,-0.8825,0,0,-0.8837,-0.8837,0,0,0,0,0,0,0,0,-0.8838,-0.8838,-0.8836,-0.8836,-0.8837,-0.8836,-0.8832,-0.8827,-0.8842,-0.884,-0.8843,-0.8844,-0.8838,-0.8838,-0.8836,-0.8824,-0.8824,-0.8837,-0.8837,-0.8837,-0.8836,0,0,0,0,0,0,0,-0.8838,-0.8838,-0.883,-0.8836,-0.8836,-0.8839,-0.8839,-0.8831,-0.8836,-0.884,-0.8841,-0.8841,-0.8839,-0.8837,-0.8836,-0.8824,-0.8837,-0.8837,-0.8836,-0.8836,-0.8799,-0.8799,0,0,0,0,0,0,-0.8838,-0.8838,-0.883,-0.883,-0.8839,-0.8838,-0.8838,-0.8836,-0.8836,-0.8837,-0.884,-0.8842,-0.8838,-0.8837,-0.8836,-0.8818,-0.8837,-0.8836,-0.8836,-0.88,-0.8799,-0.8798,0,0,0,0,0,0,-0.8838,-0.8837,-0.883,-0.8834,-0.8833,-0.8837,-0.8835,-0.8836,-0.8834,-0.8836,-0.8837,-0.8838,-0.8838,-0.8837,-0.8827,-0.8819,-0.8836,-0.8835,-0.88,-0.88,-0.8799,-0.8783,0,0,0,0,0,0,-0.8839,-0.8837,-0.8832,-0.8834,-0.8833,-0.8821,-0.8834,-0.8835,-0.8833,-0.8834,-0.8834,-0.8835,-0.8838,-0.8828,-0.8827,-0.8818,-0.8835,-0.8801,-0.88,-0.8799,-0.8784,-0.8782,-0.878,0,0,0,0,0,-0.8839,-0.8828,-0.8832,-0.8831,-0.8827,-0.8821,-0.882,-0.8825,-0.8832,-0.8827,-0.8828,-0.8835,-0.882,-0.8827,-0.8825,-0.8817,-0.8802,-0.88,-0.8799,-0.8785,-0.8782,-0.878,0,0,0,0,0,0,-0.8824,-0.8828,-0.8833,-0.8822,-0.8821,-0.8823,-0.8816,-0.8822,-0.8819,-0.882,-0.8826,-0.8826,-0.8815,-0.8815,-0.8822,-0.8802,-0.8812,-0.881,-0.8802,-0.8799,-0.8797,-0.8797,-0.8834,0,0,0,0,0,-0.882,-0.8815,-0.8819,-0.8808,-0.8808,-0.8812,-0.881,-0.8814,-0.8813,-0.8812,-0.8813,-0.8812,-0.8807,-0.8803,-0.8799,-0.8785,-0.8784,-0.8778,-0.8775,-0.8773,-0.8771,-0.8763,-0.876,-0.8794,-0.8794,-0.8794,0,0,-0.881,-0.8812,-0.8808,-0.8806,-0.8805,-0.88,-0.8812,-0.8805,-0.8801,-0.8811,-0.8802,-0.8802,-0.8801,-0.8789,-0.8783,-0.8788,-0.8762,-0.8772,-0.877,-0.8769,-0.8761,-0.8758,-0.8755,-0.8793,-0.8793,-0.8793,0,0,-0.879,-0.8791,-0.8783,-0.8782,-0.8782,-0.8785,-0.8783,-0.8784,-0.8785,-0.8776,-0.8783,-0.8778,-0.8769,-0.8768,-0.8766,-0.8745,-0.875,-0.8743,-0.873,-0.8722,-0.8719,-0.8717,-0.8709,-0.8706,-0.8742,-0.8742,-0.8742,0,-0.8778,-0.8771,-0.8777,-0.8771,-0.8769,-0.8778,-0.8769,-0.8768,-0.8766,-0.8764,-0.877,-0.8759,-0.8759,-0.8746,-0.8741,-0.874,-0.8737,-0.8743,-0.8719,-0.8717,-0.8715,-0.8707,-0.8704,-0.8741,-0.8741,-0.8741,-0.8741,0,-0.8756,-0.875,-0.8743,-0.8742,-0.8739,-0.8731,-0.8736,-0.8732,-0.8736,-0.8738,-0.8729,-0.8729,-0.8724,-0.8721,-0.8725,-0.8709,-0.8712,-0.8719,-0.8729,-0.8711,-0.8703,-0.87,-0.8739,-0.874,-0.874,-0.874,0,0,-0.8726,-0.8728,-0.8725,-0.8724,-0.8725,-0.872,-0.8713,-0.8709,-0.8705,-0.8703,-0.8696,-0.8689,-0.8695,-0.8692,-0.8696,-0.8689,-0.8671,-0.8697,-0.8697,-0.8691,-0.8652,-0.8646,-0.8643,-0.8675,-0.8675,-0.8674,-0.8652,0,-0.8705,-0.8693,-0.8698,-0.8684,-0.8679,-0.8688,-0.8681,-0.868,-0.8682,-0.8677,-0.8679,-0.8673,-0.8682,-0.868,-0.8674,-0.8675,-0.8663,-0.8677,-0.8668,-0.8667,-0.8667,-0.8639,-0.8633,-0.8611,-0.8649,-0.8648,-0.8648,0,-0.868,-0.8677,-0.8663,-0.8664,-0.8662,-0.8656,-0.8652,-0.8648,-0.8647,-0.8648,-0.8646,-0.8651,-0.8643,-0.8653,-0.8641,-0.865,-0.8646,-0.8646,-0.8646,-0.8644,-0.8656,-0.8636,-0.8605,-0.8601,-0.8644,-0.8644,-0.8644,0,-0.8658,-0.8652,-0.8642,-0.8641,-0.8642,-0.8637,-0.8638,-0.8637,-0.8634,-0.8631,-0.8629,-0.8625,-0.8622,-0.8618,-0.8622,-0.8629,-0.8608,-0.8619,-0.8608,-0.8608,-0.8603,-0.8603,-0.857,-0.8602,-0.8602,-0.8602,-0.8602,0,-0.8634,-0.8625,-0.8632,-0.8626,-0.8616,-0.8622,-0.8612,-0.8613,-0.8612,-0.8606,-0.8614,-0.8607,-0.8613,-0.8607,-0.861,-0.8598,-0.8597,-0.8598,-0.8598,-0.8596,-0.8596,-0.8593,-0.8595,-0.8601,-0.8602,-0.8602,-0.8602,0,-0.8608,-0.8613,-0.8603,-0.8605,-0.8605,-0.8597,-0.8599,-0.8593,-0.8595,-0.8587,-0.8585,-0.8589,-0.8582,-0.8586,-0.8578,-0.858,-0.8565,-0.8569,-0.8566,-0.8566,-0.8554,-0.8555,-0.8518,-0.8513,-0.8549,-0.8549,-0.8549,0,-0.8592,-0.8585,-0.8586,-0.8583,-0.8583,-0.8577,-0.8575,-0.8581,-0.8577,-0.8575,-0.8569,-0.8563,-0.8559,-0.8548,-0.8549,-0.8543,-0.8546,-0.8533,-0.8545,-0.8543,-0.8544,-0.8544,-0.8543,-0.853,-0.853,-0.8529,-0.8529,0,-0.8563,-0.8565,-0.8561,-0.8558,-0.8554,-0.8552,-0.855,-0.8546,-0.8552,-0.8548,-0.8542,-0.8538,-0.8531,-0.8525,-0.852,-0.8519,-0.8524,-0.8526,-0.8523,-0.852,-0.8518,-0.8518,-0.8558,-0.8526,-0.8527,-0.8527,-0.8527,-0.8527,-0.854,-0.8534,-0.8534,-0.8529,-0.8529,-0.8526,-0.8521,-0.8523,-0.8518,-0.8513,-0.8517,-0.8509,-0.8507,-0.8501,-0.8499,-0.8493,-0.8498,-0.8493,-0.8492,-0.8491,-0.8489,-0.852,-0.8492,-0.8492,-0.8492,-0.8492,-0.8492,0,-0.8511,-0.8511,-0.8507,-0.8504,-0.8499,-0.8506,-0.8504,-0.85,-0.8493,-0.8492,-0.8487,-0.8479,-0.8473,-0.8474,-0.8468,-0.8462,-0.8465,-0.846,-0.846,-0.846,-0.8485,-0.8488,-0.8459,-0.8459,-0.8459,-0.8459,-0.8459,-0.8459,-0.8494,-0.8484,-0.8487,-0.8476,-0.8477,-0.847,-0.8468,-0.8466,-0.8464,-0.8455,-0.845,-0.8451,-0.845,-0.8444,-0.8439,-0.8439,-0.8436,-0.843,-0.8431,-0.8455,-0.8458,-0.8461,-0.8464,-0.843,-0.843,-0.8407,-0.8406,-0.8406]}]]